Year,Month,Day,Hour,Minute,Value (Times are PST for temperature in C)
2016,12,17,00,01,-1.90
2016,12,17,00,02,-2.00
2016,12,17,00,03,-2.00
2016,12,17,00,04,-2.00
2016,12,17,00,06,-2.00
2016,12,17,00,07,-2.00
2016,12,17,00,09,-2.00
2016,12,17,00,11,-2.00
2016,12,17,00,12,-2.00
2016,12,17,00,13,-2.00
2016,12,17,00,14,-2.00
2016,12,17,00,15,-1.90
2016,12,17,00,16,-1.90
2016,12,17,00,17,-1.90
2016,12,17,00,18,-1.90
2016,12,17,00,19,-1.90
2016,12,17,00,20,-1.80
2016,12,17,00,21,-1.80
2016,12,17,00,22,-1.80
2016,12,17,00,23,-1.80
2016,12,17,00,24,-1.80
2016,12,17,00,25,-1.80
2016,12,17,00,26,-1.80
2016,12,17,00,27,-1.80
2016,12,17,00,28,-1.80
2016,12,17,00,29,-1.80
2016,12,17,00,30,-1.80
2016,12,17,00,31,-1.80
2016,12,17,00,32,-1.80
2016,12,17,00,33,-1.80
2016,12,17,00,34,-1.80
2016,12,17,00,36,-1.80
2016,12,17,00,37,-1.80
2016,12,17,00,38,-1.80
2016,12,17,00,39,-1.80
2016,12,17,00,40,-1.80
2016,12,17,00,41,-1.80
2016,12,17,00,42,-1.70
2016,12,17,00,43,-1.70
2016,12,17,00,44,-1.70
2016,12,17,00,45,-1.70
2016,12,17,00,46,-1.60
2016,12,17,00,47,-1.60
2016,12,17,00,48,-1.50
2016,12,17,00,49,-1.50
2016,12,17,00,50,-1.50
2016,12,17,00,51,-1.40
2016,12,17,00,52,-1.40
2016,12,17,00,53,-1.40
2016,12,17,00,54,-1.40
2016,12,17,00,55,-1.40
2016,12,17,00,56,-1.30
2016,12,17,00,57,-1.30
2016,12,17,00,58,-1.20
2016,12,17,00,59,-1.20
2016,12,17,01,00,-1.20
2016,12,17,01,01,-1.10
2016,12,17,01,02,-1.10
2016,12,17,01,03,-1.10
2016,12,17,01,04,-1.10
2016,12,17,01,05,-1.10
2016,12,17,01,06,-1.10
2016,12,17,01,07,-0.90
2016,12,17,01,08,-0.90
2016,12,17,01,09,-0.90
2016,12,17,01,10,-0.90
2016,12,17,01,11,-0.90
2016,12,17,01,12,-0.90
2016,12,17,01,13,-0.90
2016,12,17,01,14,-0.90
2016,12,17,01,15,-0.90
2016,12,17,01,16,-0.90
2016,12,17,01,17,-0.90
2016,12,17,01,18,-0.90
2016,12,17,01,19,-0.90
2016,12,17,01,20,-0.90
2016,12,17,01,21,-0.90
2016,12,17,01,22,-0.90
2016,12,17,01,23,-0.90
2016,12,17,01,24,-0.90
2016,12,17,01,25,-0.90
2016,12,17,01,26,-0.90
2016,12,17,01,27,-0.90
2016,12,17,01,28,-0.90
2016,12,17,01,29,-0.90
2016,12,17,01,30,-0.90
2016,12,17,01,31,-0.90
2016,12,17,01,32,-0.90
2016,12,17,01,33,-0.90
2016,12,17,01,34,-0.90
2016,12,17,01,36,-0.90
2016,12,17,01,37,-0.90
2016,12,17,01,38,-0.90
2016,12,17,01,39,-0.90
2016,12,17,01,41,-0.90
2016,12,17,01,42,-0.90
2016,12,17,01,43,-0.90
2016,12,17,01,44,-0.90
2016,12,17,01,46,-0.90
2016,12,17,01,47,-0.90
2016,12,17,01,48,-0.80
2016,12,17,01,49,-0.80
2016,12,17,01,51,-0.80
2016,12,17,01,52,-0.80
2016,12,17,01,53,-0.80
2016,12,17,01,54,-0.80
2016,12,17,01,56,-0.80
2016,12,17,01,57,-0.80
2016,12,17,01,58,-0.80
2016,12,17,01,59,-0.80
2016,12,17,02,01,-0.80
2016,12,17,02,02,-0.80
2016,12,17,02,03,-0.80
2016,12,17,03,32,-1.10
2016,12,17,03,33,-1.10
2016,12,17,03,34,-1.10
2016,12,17,03,36,-1.10
2016,12,17,03,37,-1.10
2016,12,17,03,38,-1.10
2016,12,17,03,39,-1.10
2016,12,17,03,41,-1.10
2016,12,17,03,42,-1.20
2016,12,17,03,43,-1.20
2016,12,17,03,44,-1.20
2016,12,17,03,45,-1.20
2016,12,17,03,46,-1.20
2016,12,17,03,47,-1.30
2016,12,17,03,48,-1.30
2016,12,17,03,49,-1.30
2016,12,17,03,50,-1.30
2016,12,17,03,51,-1.40
2016,12,17,03,52,-1.40
2016,12,17,03,53,-1.40
2016,12,17,03,54,-1.40
2016,12,17,03,55,-1.40
2016,12,17,03,56,-1.40
2016,12,17,03,57,-1.40
2016,12,17,03,58,-1.40
2016,12,17,03,59,-1.30
2016,12,17,04,00,-1.30
2016,12,17,04,01,-1.30
2016,12,17,04,02,-1.20
2016,12,17,04,03,-1.20
2016,12,17,04,04,-1.20
2016,12,17,04,06,-1.10
2016,12,17,04,07,-1.10
2016,12,17,04,08,-1.10
2016,12,17,04,09,-1.10
2016,12,17,04,10,-1.10
2016,12,17,04,11,-0.90
2016,12,17,04,12,-0.90
2016,12,17,04,13,-0.90
2016,12,17,04,14,-0.90
2016,12,17,04,15,-0.80
2016,12,17,04,16,-0.80
2016,12,17,04,17,-0.80
2016,12,17,04,18,-0.70
2016,12,17,04,19,-0.70
2016,12,17,04,20,-0.70
2016,12,17,04,21,-0.70
2016,12,17,04,22,-0.70
2016,12,17,04,23,-0.70
2016,12,17,04,24,-0.70
2016,12,17,04,25,-0.70
2016,12,17,04,26,-0.70
2016,12,17,04,27,-0.70
2016,12,17,04,28,-0.70
2016,12,17,04,29,-0.70
2016,12,17,04,30,-0.70
2016,12,17,04,31,-0.70
2016,12,17,04,32,-0.70
2016,12,17,04,33,-0.70
2016,12,17,04,34,-0.70
2016,12,17,04,35,-0.70
2016,12,17,04,36,-0.70
2016,12,17,04,37,-0.70
2016,12,17,04,38,-0.70
2016,12,17,04,39,-0.60
2016,12,17,04,40,-0.60
2016,12,17,04,41,-0.60
2016,12,17,04,42,-0.60
2016,12,17,04,43,-0.60
2016,12,17,04,44,-0.60
2016,12,17,04,45,-0.60
2016,12,17,04,46,-0.60
2016,12,17,04,47,-0.40
2016,12,17,04,48,-0.40
2016,12,17,04,49,-0.40
2016,12,17,04,50,-0.40
2016,12,17,04,51,-0.40
2016,12,17,04,52,-0.30
2016,12,17,04,53,-0.30
2016,12,17,04,54,-0.30
2016,12,17,04,55,-0.30
2016,12,17,04,56,-0.30
2016,12,17,04,57,-0.30
2016,12,17,04,59,-0.30
2016,12,17,05,00,-0.30
2016,12,17,05,02,-0.20
2016,12,17,05,03,-0.20
2016,12,17,05,04,-0.20
2016,12,17,05,06,-0.20
2016,12,17,05,07,-0.20
2016,12,17,05,08,-0.20
2016,12,17,05,09,-0.20
2016,12,17,05,11,-0.20
2016,12,17,05,12,-0.20
2016,12,17,05,13,-0.20
2016,12,17,05,14,-0.20
2016,12,17,05,16,-0.20
2016,12,17,05,17,-0.20
2016,12,17,05,18,-0.20
2016,12,17,05,19,-0.20
2016,12,17,05,21,-0.20
2016,12,17,05,22,-0.20
2016,12,17,05,23,-0.20
2016,12,17,05,24,-0.20
2016,12,17,05,26,-0.30
2016,12,17,05,27,-0.30
2016,12,17,05,28,-0.30
2016,12,17,05,29,-0.30
2016,12,17,05,31,-0.30
2016,12,17,05,32,-0.30
2016,12,17,05,33,-0.30
2016,12,17,05,34,-0.30
2016,12,17,05,36,-0.30
2016,12,17,05,37,-0.30
2016,12,17,05,38,-0.30
2016,12,17,05,39,-0.30
2016,12,17,05,41,-0.30
2016,12,17,05,42,-0.30
2016,12,17,05,43,-0.30
2016,12,17,05,44,-0.30
2016,12,17,05,46,-0.30
2016,12,17,05,47,-0.30
2016,12,17,05,48,-0.30
2016,12,17,05,49,-0.30
2016,12,17,05,51,-0.30
2016,12,17,05,52,-0.30
2016,12,17,05,53,-0.20
2016,12,17,05,54,-0.20
2016,12,17,05,56,-0.10
2016,12,17,05,57,-0.10
2016,12,17,05,58,-0.10
2016,12,17,05,59,-0.10
2016,12,17,06,01,-0.10
2016,12,17,06,02,-0.10
2016,12,17,06,32,0.40
2016,12,17,06,33,0.40
2016,12,17,06,34,0.40
2016,12,17,06,36,0.40
2016,12,17,06,37,0.40
2016,12,17,06,38,0.40
2016,12,17,06,39,0.40
2016,12,17,06,41,0.40
2016,12,17,06,42,0.30
2016,12,17,06,43,0.30
2016,12,17,06,44,0.30
2016,12,17,06,45,0.30
2016,12,17,06,46,0.30
2016,12,17,06,47,0.30
2016,12,17,06,48,0.30
2016,12,17,06,49,0.30
2016,12,17,06,51,0.30
2016,12,17,06,52,0.30
2016,12,17,06,53,0.30
2016,12,17,06,54,0.30
2016,12,17,06,55,0.30
2016,12,17,06,56,0.20
2016,12,17,06,57,0.20
2016,12,17,06,58,0.20
2016,12,17,06,59,0.20
2016,12,17,07,00,0.20
2016,12,17,07,01,0.20
2016,12,17,07,02,0.20
2016,12,17,07,03,0.20
2016,12,17,07,04,0.20
2016,12,17,07,06,0.20
2016,12,17,07,07,0.20
2016,12,17,07,08,0.20
2016,12,17,07,09,0.20
2016,12,17,07,10,0.20
2016,12,17,07,11,0.20
2016,12,17,07,12,0.20
2016,12,17,07,13,0.20
2016,12,17,07,14,0.20
2016,12,17,07,15,0.20
2016,12,17,07,16,0.20
2016,12,17,07,17,0.20
2016,12,17,07,18,0.20
2016,12,17,07,19,0.30
2016,12,17,07,20,0.30
2016,12,17,07,21,0.30
2016,12,17,07,22,0.30
2016,12,17,07,23,0.30
2016,12,17,07,24,0.30
2016,12,17,07,25,0.30
2016,12,17,07,26,0.30
2016,12,17,07,27,0.20
2016,12,17,07,28,0.20
2016,12,17,07,29,0.20
2016,12,17,07,30,0.20
2016,12,17,07,31,0.20
2016,12,17,07,32,0.20
2016,12,17,07,33,0.20
2016,12,17,07,34,0.20
2016,12,17,07,35,0.20
2016,12,17,07,36,0.20
2016,12,17,07,37,0.20
2016,12,17,07,38,0.20
2016,12,17,07,39,0.10
2016,12,17,07,40,0.10
2016,12,17,07,41,0.10
2016,12,17,07,42,0.10
2016,12,17,07,43,0.10
2016,12,17,07,44,0.10
2016,12,17,07,45,0.10
2016,12,17,07,46,0.10
2016,12,17,07,47,0.10
2016,12,17,07,48,0.10
2016,12,17,07,49,0.10
2016,12,17,07,50,0.10
2016,12,17,07,51,-0.10
2016,12,17,08,32,0.40
2016,12,17,08,33,0.40
2016,12,17,08,34,0.40
2016,12,17,08,36,0.40
2016,12,17,08,37,0.40
2016,12,17,08,38,0.40
2016,12,17,08,39,0.40
2016,12,17,08,41,0.40
2016,12,17,08,42,0.40
2016,12,17,08,43,0.40
2016,12,17,08,44,0.40
2016,12,17,08,46,0.40
2016,12,17,08,47,0.40
2016,12,17,08,48,0.50
2016,12,17,08,49,0.50
2016,12,17,08,50,0.50
2016,12,17,08,51,0.40
2016,12,17,08,52,0.40
2016,12,17,08,53,0.40
2016,12,17,08,54,0.40
2016,12,17,08,55,0.40
2016,12,17,08,56,0.40
2016,12,17,08,57,0.40
2016,12,17,08,58,0.40
2016,12,17,08,59,0.40
2016,12,17,09,00,0.40
2016,12,17,09,01,0.40
2016,12,17,09,02,0.40
2016,12,17,09,03,0.40
2016,12,17,09,04,0.40
2016,12,17,09,06,0.40
2016,12,17,09,07,0.40
2016,12,17,09,08,0.40
2016,12,17,09,09,0.40
2016,12,17,09,10,0.40
2016,12,17,09,11,0.40
2016,12,17,09,12,0.40
2016,12,17,09,13,0.40
2016,12,17,09,14,0.40
2016,12,17,09,15,0.40
2016,12,17,09,16,0.30
2016,12,17,09,17,0.30
2016,12,17,09,18,0.30
2016,12,17,09,19,0.30
2016,12,17,09,20,0.30
2016,12,17,09,21,0.40
2016,12,17,09,22,0.40
2016,12,17,09,23,0.40
2016,12,17,09,24,0.40
2016,12,17,09,25,0.40
2016,12,17,09,26,0.40
2016,12,17,09,27,0.40
2016,12,17,09,28,0.40
2016,12,17,09,29,0.30
2016,12,17,09,30,0.30
2016,12,17,09,31,0.30
2016,12,17,09,32,0.30
2016,12,17,09,33,0.30
2016,12,17,09,34,0.20
2016,12,17,09,35,0.20
2016,12,17,09,36,0.20
2016,12,17,09,37,0.20
2016,12,17,09,38,0.20
2016,12,17,09,39,0.20
2016,12,17,09,40,0.10
2016,12,17,09,41,0.10
2016,12,17,09,42,0.10
2016,12,17,09,43,0.10
2016,12,17,09,44,0.10
2016,12,17,09,45,0.10
2016,12,17,09,46,0.10
2016,12,17,09,47,0.10
2016,12,17,09,48,0.20
2016,12,17,09,49,0.20
2016,12,17,09,50,0.20
2016,12,17,09,51,0.30
2016,12,17,09,52,0.30
2016,12,17,09,53,0.40
2016,12,17,09,54,0.40
2016,12,17,09,55,0.40
2016,12,17,09,56,0.40
2016,12,17,09,57,0.40
2016,12,17,09,58,0.40
2016,12,17,09,59,0.40
2016,12,17,10,00,0.40
2016,12,17,10,01,0.40
2016,12,17,10,03,0.40
2016,12,17,10,04,0.40
2016,12,17,10,06,0.40
2016,12,17,10,07,0.50
2016,12,17,10,08,0.50
2016,12,17,10,09,0.50
2016,12,17,10,11,0.40
2016,12,17,10,12,0.40
2016,12,17,10,13,0.40
2016,12,17,10,14,0.40
2016,12,17,10,16,0.40
2016,12,17,10,17,0.40
2016,12,17,10,18,0.50
2016,12,17,10,19,0.50
2016,12,17,10,21,0.60
2016,12,17,10,22,0.60
2016,12,17,10,23,0.60
2016,12,17,10,24,0.60
2016,12,17,10,26,0.60
2016,12,17,10,27,0.60
2016,12,17,10,28,0.60
2016,12,17,10,29,0.50
2016,12,17,10,31,0.50
2016,12,17,10,32,0.50
2016,12,17,10,33,0.50
2016,12,17,10,34,0.60
2016,12,17,10,36,0.60
2016,12,17,10,37,0.60
2016,12,17,10,38,0.60
2016,12,17,10,39,0.60
2016,12,17,10,41,0.60
2016,12,17,10,42,0.60
2016,12,17,10,43,0.70
2016,12,17,10,44,0.60
2016,12,17,10,46,0.70
2016,12,17,10,47,0.70
2016,12,17,10,48,0.70
2016,12,17,10,49,0.70
2016,12,17,10,51,0.70
2016,12,17,10,52,0.70
2016,12,17,10,53,0.70
2016,12,17,10,54,0.70
2016,12,17,10,56,0.70
2016,12,17,10,57,0.70
2016,12,17,10,58,0.70
2016,12,17,10,59,0.70
2016,12,17,11,01,0.70
2016,12,17,11,02,0.70
2016,12,17,11,03,0.80
2016,12,17,11,04,0.80
2016,12,17,11,06,0.80
2016,12,17,11,07,0.80
2016,12,17,11,08,0.80
2016,12,17,11,09,0.80
2016,12,17,11,11,0.80
2016,12,17,11,12,0.80
2016,12,17,11,13,0.80
2016,12,17,11,14,0.80
2016,12,17,11,15,0.80
2016,12,17,11,16,0.80
2016,12,17,11,17,0.80
2016,12,17,11,18,0.80
2016,12,17,11,19,0.80
2016,12,17,11,21,0.80
2016,12,17,11,22,0.80
2016,12,17,11,23,0.80
2016,12,17,11,24,0.80
2016,12,17,11,25,0.80
2016,12,17,11,26,0.80
2016,12,17,11,27,0.80
2016,12,17,11,28,0.80
2016,12,17,11,29,0.80
2016,12,17,11,30,0.80
2016,12,17,11,31,0.80
2016,12,17,11,32,0.80
2016,12,17,11,33,0.80
2016,12,17,11,34,0.80
2016,12,17,11,36,0.80
2016,12,17,11,37,0.80
2016,12,17,11,38,0.80
2016,12,17,11,39,0.80
2016,12,17,11,40,0.90
2016,12,17,11,41,0.90
2016,12,17,11,42,0.90
2016,12,17,11,43,0.90
2016,12,17,11,44,0.90
2016,12,17,11,45,0.90
2016,12,17,11,46,0.90
2016,12,17,11,47,0.90
2016,12,17,11,48,0.90
2016,12,17,11,49,0.90
2016,12,17,11,50,0.90
2016,12,17,11,51,0.90
2016,12,17,11,52,0.90
2016,12,17,11,53,0.90
2016,12,17,11,54,0.90
2016,12,17,11,55,1.00
2016,12,17,11,56,1.00
2016,12,17,11,57,1.00
2016,12,17,11,58,1.00
2016,12,17,11,59,1.00
2016,12,17,12,00,1.00
2016,12,17,12,01,1.00
2016,12,17,12,02,1.00
2016,12,17,12,03,1.00
2016,12,17,12,04,0.90
2016,12,17,12,05,0.90
2016,12,17,12,06,0.90
2016,12,17,12,07,0.90
2016,12,17,12,08,0.90
2016,12,17,12,09,0.90
2016,12,17,12,10,0.90
2016,12,17,12,11,1.00
2016,12,17,12,12,1.00
2016,12,17,12,13,1.00
2016,12,17,12,14,0.90
2016,12,17,12,15,0.90
2016,12,17,12,16,0.90
2016,12,17,12,17,1.00
2016,12,17,12,18,1.00
2016,12,17,12,19,1.00
2016,12,17,12,20,1.00
2016,12,17,12,21,1.00
2016,12,17,12,22,1.00
2016,12,17,12,23,1.00
2016,12,17,12,24,1.00
2016,12,17,12,25,1.00
2016,12,17,12,26,1.00
2016,12,17,12,27,1.00
2016,12,17,12,28,1.00
2016,12,17,12,29,1.00
2016,12,17,12,30,1.00
2016,12,17,12,31,1.10
2016,12,17,12,32,1.10
2016,12,17,12,33,1.10
2016,12,17,12,34,1.10
2016,12,17,12,35,1.10
2016,12,17,12,36,1.10
2016,12,17,12,38,1.10
2016,12,17,12,39,1.00
2016,12,17,12,41,1.10
2016,12,17,12,42,1.20
2016,12,17,12,43,1.20
2016,12,17,12,44,1.20
2016,12,17,12,46,1.20
2016,12,17,12,47,1.20
2016,12,17,12,48,1.20
2016,12,17,12,49,1.20
2016,12,17,12,51,1.20
2016,12,17,12,52,1.30
2016,12,17,12,53,1.30
2016,12,17,13,32,1.30
2016,12,17,13,33,1.30
2016,12,17,13,34,1.30
2016,12,17,13,36,1.30
2016,12,17,13,37,1.30
2016,12,17,13,38,1.30
2016,12,17,13,39,1.30
2016,12,17,13,40,1.30
2016,12,17,13,41,1.30
2016,12,17,13,42,1.30
2016,12,17,13,43,1.30
2016,12,17,13,44,1.30
2016,12,17,13,45,1.30
2016,12,17,13,46,1.30
2016,12,17,13,47,1.40
2016,12,17,13,48,1.40
2016,12,17,13,49,1.40
2016,12,17,13,50,1.40
2016,12,17,13,51,1.40
2016,12,17,13,52,1.40
2016,12,17,13,53,1.40
2016,12,17,13,54,1.40
2016,12,17,13,55,1.40
2016,12,17,13,56,1.40
2016,12,17,13,57,1.30
2016,12,17,13,58,1.30
2016,12,17,13,59,1.30
2016,12,17,14,00,1.30
2016,12,17,14,01,1.40
2016,12,17,14,02,1.40
2016,12,17,14,03,1.40
2016,12,17,14,04,1.40
2016,12,17,14,05,1.40
2016,12,17,14,06,1.30
2016,12,17,14,07,1.30
2016,12,17,14,08,1.30
2016,12,17,14,09,1.30
2016,12,17,14,10,1.30
2016,12,17,14,11,1.30
2016,12,17,14,12,1.40
2016,12,17,14,13,1.40
2016,12,17,14,14,1.50
2016,12,17,14,15,1.50
2016,12,17,14,16,1.50
2016,12,17,14,17,1.50
2016,12,17,14,18,1.40
2016,12,17,14,19,1.40
2016,12,17,14,20,1.40
2016,12,17,14,21,1.30
2016,12,17,14,22,1.30
2016,12,17,14,23,1.30
2016,12,17,14,24,1.30
2016,12,17,14,25,1.30
2016,12,17,14,26,1.30
2016,12,17,14,27,1.30
2016,12,17,14,28,1.30
2016,12,17,14,29,1.30
2016,12,17,14,30,1.30
2016,12,17,14,31,1.30
2016,12,17,14,32,1.30
2016,12,17,14,33,1.30
2016,12,17,14,34,1.30
2016,12,17,14,35,1.30
2016,12,17,14,36,1.30
2016,12,17,14,37,1.30
2016,12,17,14,38,1.30
2016,12,17,14,39,1.40
2016,12,17,14,40,1.40
2016,12,17,14,41,1.50
2016,12,17,14,42,1.50
2016,12,17,14,43,1.50
2016,12,17,14,44,1.50
2016,12,17,14,45,1.50
2016,12,17,14,46,1.50
2016,12,17,14,47,1.50
2016,12,17,14,48,1.50
2016,12,17,14,49,1.50
2016,12,17,14,50,1.50
2016,12,17,14,51,1.50
2016,12,17,15,32,1.30
2016,12,17,15,33,1.30
2016,12,17,15,34,1.30
2016,12,17,15,36,1.30
2016,12,17,15,37,1.30
2016,12,17,15,38,1.30
2016,12,17,15,39,1.30
2016,12,17,15,41,1.30
2016,12,17,15,42,1.30
2016,12,17,15,43,1.30
2016,12,17,15,44,1.30
2016,12,17,15,45,1.30
2016,12,17,15,46,1.30
2016,12,17,15,47,1.30
2016,12,17,15,48,1.30
2016,12,17,15,49,1.30
2016,12,17,15,50,1.30
2016,12,17,15,51,1.30
2016,12,17,15,52,1.30
2016,12,17,15,53,1.30
2016,12,17,15,54,1.30
2016,12,17,15,55,1.30
2016,12,17,15,56,1.30
2016,12,17,15,57,1.20
2016,12,17,15,58,1.20
2016,12,17,15,59,1.20
2016,12,17,16,00,1.20
2016,12,17,16,01,1.20
2016,12,17,16,02,1.20
2016,12,17,16,03,1.20
2016,12,17,16,04,1.20
2016,12,17,16,06,1.10
2016,12,17,16,07,1.10
2016,12,17,16,08,1.10
2016,12,17,16,09,1.10
2016,12,17,16,10,1.10
2016,12,17,16,11,1.10
2016,12,17,16,12,1.00
2016,12,17,16,13,1.00
2016,12,17,16,14,1.00
2016,12,17,16,15,1.00
2016,12,17,16,16,1.00
2016,12,17,16,17,1.00
2016,12,17,16,18,1.00
2016,12,17,16,19,0.90
2016,12,17,16,20,0.90
2016,12,17,16,21,0.90
2016,12,17,16,22,0.90
2016,12,17,16,23,0.90
2016,12,17,16,24,0.90
2016,12,17,16,25,0.90
2016,12,17,16,26,0.90
2016,12,17,16,27,0.80
2016,12,17,16,28,0.80
2016,12,17,16,29,0.80
2016,12,17,16,30,0.80
2016,12,17,16,31,0.80
2016,12,17,16,32,0.80
2016,12,17,16,33,0.80
2016,12,17,16,34,0.80
2016,12,17,16,35,0.80
2016,12,17,16,36,0.80
2016,12,17,16,37,0.80
2016,12,17,16,38,0.80
2016,12,17,16,39,0.80
2016,12,17,16,40,0.80
2016,12,17,16,41,0.80
2016,12,17,16,42,0.80
2016,12,17,16,43,0.80
2016,12,17,16,44,0.80
2016,12,17,16,45,0.80
2016,12,17,16,46,0.80
2016,12,17,16,47,0.80
2016,12,17,16,48,0.80
2016,12,17,16,49,0.80
2016,12,17,16,50,0.80
2016,12,17,16,51,0.70
2016,12,17,16,53,0.70
2016,12,17,16,54,0.70
2016,12,17,16,56,0.60
2016,12,17,16,57,0.60
2016,12,17,16,58,0.60
2016,12,17,16,59,0.60
2016,12,17,17,01,0.50
2016,12,17,17,02,0.50
2016,12,17,17,03,0.50
2016,12,17,17,04,0.50
2016,12,17,17,06,0.40
2016,12,17,17,07,0.40
2016,12,17,17,08,0.40
2016,12,17,17,09,0.40
2016,12,17,17,11,0.40
2016,12,17,17,12,0.40
2016,12,17,17,13,0.40
2016,12,17,17,14,0.40
2016,12,17,17,16,0.40
2016,12,17,17,17,0.40
2016,12,17,17,18,0.40
2016,12,17,17,19,0.40
2016,12,17,17,21,0.40
2016,12,17,17,22,0.40
2016,12,17,17,32,0.40
2016,12,17,17,33,0.40
2016,12,17,17,34,0.40
2016,12,17,17,36,0.40
2016,12,17,17,37,0.40
2016,12,17,17,38,0.40
2016,12,17,17,39,0.40
2016,12,17,17,40,0.40
2016,12,17,17,41,0.40
2016,12,17,17,42,0.40
2016,12,17,17,43,0.40
2016,12,17,17,44,0.40
2016,12,17,17,45,0.40
2016,12,17,17,46,0.40
2016,12,17,17,47,0.40
2016,12,17,17,48,0.40
2016,12,17,17,49,0.40
2016,12,17,17,50,0.40
2016,12,17,17,51,0.40
2016,12,17,17,52,0.40
2016,12,17,17,53,0.40
2016,12,17,17,54,0.40
2016,12,17,17,55,0.40
2016,12,17,17,56,0.40
2016,12,17,17,57,0.40
2016,12,17,17,58,0.40
2016,12,17,17,59,0.40
2016,12,17,18,00,0.40
2016,12,17,18,01,0.50
2016,12,17,18,02,0.50
2016,12,17,18,03,0.50
2016,12,17,18,04,0.50
2016,12,17,18,05,0.50
2016,12,17,18,06,0.50
2016,12,17,18,07,0.50
2016,12,17,18,08,0.50
2016,12,17,18,09,0.50
2016,12,17,18,10,0.50
2016,12,17,18,11,0.50
2016,12,17,18,12,0.60
2016,12,17,18,13,0.60
2016,12,17,18,14,0.60
2016,12,17,18,15,0.60
2016,12,17,18,16,0.80
2016,12,17,18,17,0.80
2016,12,17,18,18,0.90
2016,12,17,18,19,1.10
2016,12,17,18,20,1.20
2016,12,17,18,21,1.20
2016,12,17,18,22,1.30
2016,12,17,18,23,1.30
2016,12,17,18,24,1.40
2016,12,17,18,25,1.40
2016,12,17,18,26,1.50
2016,12,17,18,27,1.60
2016,12,17,18,28,1.70
2016,12,17,18,29,1.70
2016,12,17,18,30,1.70
2016,12,17,18,31,1.70
2016,12,17,18,32,1.70
2016,12,17,18,33,1.70
2016,12,17,18,34,1.70
2016,12,17,18,35,1.70
2016,12,17,18,36,1.70
2016,12,17,18,37,1.70
2016,12,17,18,38,1.70
2016,12,17,18,39,1.70
2016,12,17,18,41,1.80
2016,12,17,18,42,1.80
2016,12,17,18,43,1.80
2016,12,17,18,44,1.80
2016,12,17,18,46,1.80
2016,12,17,18,47,1.80
2016,12,17,18,48,1.80
2016,12,17,18,49,1.80
2016,12,17,18,51,1.80
2016,12,17,18,52,1.80
2016,12,17,18,53,1.80
2016,12,17,18,54,1.80
2016,12,17,18,56,1.80
2016,12,17,18,57,1.80
2016,12,17,18,58,1.80
2016,12,17,18,59,1.90
2016,12,17,19,01,1.90
2016,12,17,19,02,2.00
2016,12,17,19,03,2.00
2016,12,17,19,04,2.00
2016,12,17,19,06,2.00
2016,12,17,19,07,2.10
2016,12,17,19,08,2.10
2016,12,17,19,09,2.10
2016,12,17,19,11,2.20
2016,12,17,19,12,2.20
2016,12,17,19,13,2.20
2016,12,17,19,14,2.20
2016,12,17,19,16,2.20
2016,12,17,19,17,2.20
2016,12,17,19,18,2.20
2016,12,17,19,19,2.20
2016,12,17,19,21,2.20
2016,12,17,19,22,2.20
2016,12,17,19,23,2.20
2016,12,17,19,24,2.20
2016,12,17,19,26,2.20
2016,12,17,19,27,2.20
2016,12,17,19,28,2.20
2016,12,17,19,29,2.20
2016,12,17,19,31,2.20
2016,12,17,19,32,2.20
2016,12,17,19,33,2.20
2016,12,17,19,34,2.20
2016,12,17,19,36,2.20
2016,12,17,19,37,2.20
2016,12,17,19,38,2.20
2016,12,17,19,39,2.20
2016,12,17,19,41,2.20
2016,12,17,19,42,2.20
2016,12,17,19,43,2.30
2016,12,17,19,44,2.20
2016,12,17,19,46,2.20
2016,12,17,19,47,2.20
2016,12,17,19,48,2.20
2016,12,17,19,49,2.20
2016,12,17,19,51,2.20
2016,12,17,19,52,2.20
2016,12,17,19,53,2.20
2016,12,17,19,54,2.20
2016,12,17,19,55,2.20
2016,12,17,19,56,2.20
2016,12,17,19,57,2.20
2016,12,17,19,58,2.20
2016,12,17,19,59,2.20
2016,12,17,20,00,2.20
2016,12,17,20,01,2.20
2016,12,17,20,02,2.20
2016,12,17,20,03,2.20
2016,12,17,20,04,2.20
2016,12,17,20,06,2.20
2016,12,17,20,07,2.20
2016,12,17,20,08,2.20
2016,12,17,20,09,2.20
2016,12,17,20,10,2.20
2016,12,17,20,11,2.30
2016,12,17,20,12,2.40
2016,12,17,20,13,2.40
2016,12,17,20,14,2.40
2016,12,17,20,15,2.40
2016,12,17,20,16,2.40
2016,12,17,20,17,2.40
2016,12,17,20,18,2.40
2016,12,17,20,19,2.40
2016,12,17,20,20,2.40
2016,12,17,20,21,2.40
2016,12,17,20,22,2.40
2016,12,17,20,23,2.40
2016,12,17,20,24,2.40
2016,12,17,20,25,2.40
2016,12,17,20,26,2.40
2016,12,17,20,27,2.40
2016,12,17,20,28,2.40
2016,12,17,20,29,2.30
2016,12,17,20,30,2.30
2016,12,17,20,31,2.30
2016,12,17,20,32,2.30
2016,12,17,20,33,2.30
2016,12,17,20,34,2.40
2016,12,17,20,35,2.40
2016,12,17,20,36,2.40
2016,12,17,20,37,2.40
2016,12,17,20,38,2.40
2016,12,17,20,39,2.40
2016,12,17,20,40,2.40
2016,12,17,20,41,2.40
2016,12,17,20,42,2.40
2016,12,17,20,43,2.40
2016,12,17,20,44,2.30
2016,12,17,20,45,2.30
2016,12,17,20,46,2.30
2016,12,17,20,47,2.30
2016,12,17,20,48,2.30
2016,12,17,20,49,2.30
2016,12,17,20,50,2.40
2016,12,17,20,51,2.40
2016,12,17,20,53,2.40
2016,12,17,20,54,2.40
2016,12,17,20,56,2.40
2016,12,17,20,57,2.40
2016,12,17,20,58,2.40
2016,12,17,20,59,2.50
2016,12,17,21,01,2.50
2016,12,17,21,02,2.60
2016,12,17,21,03,2.60
2016,12,17,21,04,2.60
2016,12,17,21,06,2.60
2016,12,17,21,07,2.60
2016,12,17,21,08,2.60
2016,12,17,21,09,2.70
2016,12,17,21,11,2.70
2016,12,17,21,12,2.70
2016,12,17,21,13,2.60
2016,12,17,21,14,2.60
2016,12,17,21,16,2.60
2016,12,17,21,17,2.60
2016,12,17,21,18,2.60
2016,12,17,21,19,2.70
2016,12,17,21,21,2.60
2016,12,17,21,22,2.60
2016,12,17,21,23,2.60
2016,12,17,21,24,2.60
2016,12,17,21,26,2.60
2016,12,17,21,27,2.60
2016,12,17,21,28,2.60
2016,12,17,21,29,2.60
2016,12,17,21,31,2.60
2016,12,17,21,32,2.60
2016,12,17,21,33,2.60
2016,12,17,21,34,2.50
2016,12,17,21,36,2.50
2016,12,17,21,37,2.50
2016,12,17,21,38,2.50
2016,12,17,21,39,2.50
2016,12,17,21,41,2.60
2016,12,17,21,42,2.60
2016,12,17,21,43,2.60
2016,12,17,21,44,2.60
2016,12,17,21,46,2.60
2016,12,17,21,47,2.50
2016,12,17,21,48,2.50
2016,12,17,21,49,2.50
2016,12,17,21,51,2.60
2016,12,17,21,52,2.60
2016,12,17,21,53,2.50
2016,12,17,21,54,2.50
2016,12,17,21,56,2.50
2016,12,17,21,57,2.50
2016,12,17,21,58,2.50
2016,12,17,21,59,2.60
2016,12,17,22,01,2.60
2016,12,17,22,02,2.60
2016,12,17,22,03,2.70
2016,12,17,22,04,2.70
2016,12,17,22,06,2.70
2016,12,17,22,07,2.70
2016,12,17,22,08,2.70
2016,12,17,22,09,2.70
2016,12,17,22,10,2.70
2016,12,17,22,11,2.70
2016,12,17,22,12,2.70
2016,12,17,22,13,2.70
2016,12,17,22,14,2.60
2016,12,17,22,15,2.60
2016,12,17,22,16,2.60
2016,12,17,22,17,2.60
2016,12,17,22,18,2.60
2016,12,17,22,19,2.60
2016,12,17,22,20,2.60
2016,12,17,22,21,2.60
2016,12,17,22,22,2.70
2016,12,17,22,23,2.70
2016,12,17,22,24,2.70
2016,12,17,22,25,2.70
2016,12,17,22,26,2.70
2016,12,17,22,27,2.70
2016,12,17,22,28,2.70
2016,12,17,22,29,2.80
2016,12,17,22,30,2.80
2016,12,17,22,31,2.80
2016,12,17,22,32,2.80
2016,12,17,22,33,2.80
2016,12,17,22,34,2.70
2016,12,17,22,35,2.70
2016,12,17,22,36,2.70
2016,12,17,22,37,2.70
2016,12,17,22,38,2.70
2016,12,17,22,39,2.70
2016,12,17,22,40,2.70
2016,12,17,22,41,2.70
2016,12,17,22,42,2.70
2016,12,17,22,43,2.70
2016,12,17,22,44,2.70
2016,12,17,22,45,2.70
2016,12,17,22,46,2.70
2016,12,17,22,47,2.70
2016,12,17,22,48,2.70
2016,12,17,22,49,2.80
2016,12,17,22,50,2.80
2016,12,17,22,51,2.80
2016,12,17,22,52,2.80
2016,12,17,22,53,2.70
2016,12,17,22,54,2.70
2016,12,17,22,55,2.70
2016,12,17,22,56,2.70
2016,12,17,22,57,2.70
2016,12,17,22,58,2.70
2016,12,17,22,59,2.70
2016,12,17,23,00,2.70
2016,12,17,23,01,2.80
2016,12,17,23,02,2.80
2016,12,17,23,03,2.70
2016,12,17,23,32,2.70
2016,12,17,23,33,2.70
2016,12,17,23,34,2.70
2016,12,17,23,36,2.70
2016,12,17,23,37,2.70
2016,12,17,23,38,2.70
2016,12,17,23,39,2.70
2016,12,17,23,41,2.70
2016,12,17,23,42,2.70
2016,12,17,23,43,2.60
2016,12,17,23,44,2.60
2016,12,17,23,45,2.60
2016,12,17,23,46,2.60
2016,12,17,23,47,2.60
2016,12,17,23,48,2.60
2016,12,17,23,49,2.70
2016,12,17,23,50,2.70
2016,12,17,23,51,2.70
2016,12,17,23,52,2.70
2016,12,17,23,53,2.70
2016,12,17,23,54,2.70
2016,12,17,23,55,2.70
2016,12,17,23,56,2.70
2016,12,17,23,57,2.70
2016,12,17,23,58,2.70
2016,12,17,23,59,2.70
